Regional Weather Roundup
Issued by NWS

Home | Current Version | Previous Version | Graphics & Text | Print | Product List | Glossary On
Versions: 1 2 3 4 5 6 7 8 9 10 11 12 13 14 15 16 17 18 19 20 21 22 23 24 25 26 27 28 29 30 31 32 33 34 35 36 37 38 39 40 41 42 43 44 45 46 47 48 49 50
000
ASUS43 KDTX 280110
RWRMI
MICHIGAN HOURLY REGIONAL WEATHER ROUNDUP
NATIONAL WEATHER SERVICE DETROIT/PONTIAC MI
900 PM EDT MON JUL 27 2015

NOTE: "FAIR" INDICATES FEW OR NO CLOUDS BELOW 12,000 FEET WITH NO
SIGNIFICANT WEATHER AND/OR OBSTRUCTION TO VISIBILITY.

MIZ047>049-052>055-059>063-066>070-074>076-081>083-280200-
SOUTHEAST LOWER MICHIGAN

CITY           SKY/WX    TMP DP  RH WIND       PRES   REMARKS
ADRIAN         CLEAR     76  65  68 CALM      30.02R
ALMA           PTCLDY    76  68  77 CALM      30.02R
ANN ARBOR      CLEAR     73  68  84 SW5       30.01R
BAD AXE        CLEAR     76  68  77 CALM      30.01S
DETROIT CITY   CLEAR     82  62  50 E5        30.00S
DETROIT        PTCLDY    81  64  56 SE3       30.01R
FLINT          PTCLDY    83  61  47 W3        30.01S
GROSSE ILE     CLEAR     77  68  73 CALM      29.99S
HILLSDALE      CLEAR     74  69  83 CALM      30.04R
HOWELL         PTCLDY    79  62  55 CALM      30.02R

CITY           SKY/WX    TMP DP  RH WIND       PRES   REMARKS
JACKSON        CLEAR     77  65  66 SW3       30.02R
LAMBERTVILLE   CLEAR     75  66  72 CALM      30.02R
LANSING        PTCLDY    79  64  60 CALM      30.02R
LAPEER         NOT AVBL
MASON          CLEAR     76  62  62 CALM      30.02R
MONROE         CLEAR     78  61  56 CALM      30.00R
MT. CLEMENS    CLEAR     80  62  55 S5        29.99S
PONTIAC        MOCLDY    83  56  39 E3        30.01R
PORT HOPE        N/A     76  69  79 E9        29.99S
PORT HURON     CLEAR     72  63  73 CALM      30.01R
TRI CITIES     CLEAR     81  66  60 S3        30.00F
YPSILANTI      CLEAR     80  67  64 S6        30.01R
$$
MIZ043>046-050>051-056>058-064>065-071>073-077>080-280200-
SOUTHWEST LOWER MICHIGAN

CITY           SKY/WX    TMP DP  RH WIND       PRES   REMARKS
BATTLE CREEK   CLEAR     84  61  45 SE5       30.02S
BENTON HARBOR  PTCLDY    76  65  68 N5        29.99S
BIG RAPIDS     CLEAR     80  63  56 W3        30.02R
COLDWATER      CLEAR     75  60  58 E3        30.01S
HOLLAND        PTCLDY    80  66  62 NW3       30.01R
GRAND RAPIDS   PTCLDY    83  63  50 E3        30.01R
KALAMAZOO      CLEAR     80  62  54 CALM      30.01S
MARSHALL       CLEAR     77  66  68 CALM      30.02R
MUSKEGON       MOCLDY    80  65  59 N6        30.01R
$$
MIZ016>042-280200-
NORTHERN LOWER MICHIGAN

CITY           SKY/WX    TMP DP  RH WIND       PRES   REMARKS
ALPENA         CLEAR     78  64  61 CALM      30.01R
BEAVER ISLAND  CLEAR     73  60  64 SW3       30.02S
BELLAIRE       CLEAR     75  63  65 CALM      30.01S
CADILLAC       CLEAR     80  62  54 NW3       30.04R
CHARLEVOIX     CLEAR     75  60  58 W5        30.04S
FRANKFORT      CLEAR     74  61  63 CALM      30.02R
GAYLORD        CLEAR     81  59  47 NW3       30.04S
GRAYLING       CLEAR     79  61  53 NW3       30.04R
HARBOR SPRINGS CLEAR     70  68  93 SW3       30.01S
HOUGHTON LAKE  PTCLDY    83  61  47 N6        30.02R
MANISTEE       CLEAR     75  57  53 W5        30.03R
OSCODA         CLEAR     74  66  75 E3        30.00S
PELLSTON       CLEAR     79  61  53 NW5       30.02R
TRAVERSE CITY  PTCLDY    78  66  66 NE5       30.00R
$$
MIZ007>008-015-280200-
EASTERN UPPER MICHIGAN

CITY           SKY/WX    TMP DP  RH WIND       PRES   REMARKS
KINROSS        CLEAR     81  63  54 CALM      30.01S
MACKINAC ISLAN CLEAR     76  63  62 W6        30.02R
$$
MIZ004>006-011>014-085-280200-
CENTRAL UPPER MICHIGAN

CITY           SKY/WX    TMP DP  RH WIND       PRES   REMARKS
MANISTIQUE     CLEAR     73  63  68 CALM      30.00S
ESCANABA       CLEAR     79  64  61 S6        29.99R
MENOMINEE      CLEAR     79  61  53 S3        30.00R
SAWYER-GWINN   CLEAR     84  57  39 SW5       30.01R
$$
MIZ001>003-009>011-084-280200-
WESTERN UPPER MICHIGAN

CITY           SKY/WX    TMP DP  RH WIND       PRES   REMARKS
IRON MOUNTAIN  CLEAR     80  62  54 S5        30.00S
HOUGHTON       CLEAR     77  67  71 E3        29.98S
COPPER HARBOR    N/A     76  66  71 CALM      29.97R
IRONWOOD       CLEAR     82  59  44 SE5         N/A
$$

ABBREVIATIONS USED IN REMARKS
   TC - TEMPERATURE IN CELSIUS
  WCI - WIND CHILL INDEX
   HX - HEAT INDEX
  VSB - VISIBILITY




USA.gov is the U.S. government's official web portal to all federal, state and local government web resources and services.